Regional Weather Roundup
Issued by NWS

Home | Current Version | Previous Version | Graphics & Text | Print | Product List | Glossary On
Versions: 1 2 3 4 5 6 7 8 9 10 11 12 13 14 15 16 17 18 19 20 21 22 23 24 25 26 27 28 29 30 31 32 33 34 35 36 37 38 39 40 41 42 43 44 45 46 47 48 49 50
000
ASUS43 KFSD 262102
RWRSD

WEATHER ROUNDUP FOR SOUTH DAKOTA
NATIONAL WEATHER SERVICE SIOUX FALLS SD
400 PM CDT TUE MAY 26 2015

NOTE: "FAIR" INDICATES FEW OR NO CLOUDS BELOW 12,000 FEET WITH NO
SIGNIFICANT WEATHER AND/OR OBSTRUCTIONS TO VISIBILITY.


SDZ001>005-009-010-012>017-262200-
NORTHWEST AND NORTH CENTRAL SOUTH DAKOTA

CITY           SKY/WX    TMP DP  RH WIND       PRES   REMARKS
FAITH            N/A     71  46  40 S6        29.94F
MOBRIDGE       SUNNY     80  49  33 VRB6      29.86F
$$

SDZ012>016-024>037-041>051-057-063-072>074-262200-
SOUTHWEST AND SOUTH CENTRAL SOUTH DAKOTA

CITY           SKY/WX    TMP DP  RH WIND       PRES   REMARKS
RAPID CTY ARPT PTSUNNY   66  50  56 S7        29.98R
PIERRE         PTSUNNY   76  51  41 W12       29.88F
CUSTER         CLOUDY    54  47  77 NE6       30.04S
ELLSWORTH AFB  PTSUNNY   65  49  56 S9        29.97S
PHILIP         SUNNY     74  49  41 S9        29.94S
PINE RIDGE     CLOUDY    66  47  50 SE5       29.98S
WINNER         FAIR      75  46  35 NW9G18    29.91F
$$

SDZ004>011-016>023-039-040-262200-
NORTHEAST SOUTH DAKOTA

CITY           SKY/WX    TMP DP  RH WIND       PRES   REMARKS
ABERDEEN       CLOUDY    78  53  41 N6        29.82F
WATERTOWN      CLOUDY    70  52  52 N7        29.84F
BROOKINGS      CLOUDY    66  52  59 N14       29.84S
$$

SDZ017-020-022-023-036>040-048>070-262200-
SOUTHEAST SOUTH DAKOTA

CITY           SKY/WX    TMP DP  RH WIND       PRES   REMARKS
SIOUX FALLS    CLOUDY    66  56  70 N9        29.83S
HURON          MOSUNNY   77  50  38 NE12      29.84S
CHAMBERLAIN    PTSUNNY   74  49  40 N7        29.88S
MITCHELL       PTSUNNY   74  55  51 E6        29.86S
YANKTON        MOSUNNY   72  52  49 NW16      29.83F
$$

ABBREVIATIONS USED IN REMARKS
   TC - TEMPERATURE IN CELSIUS
  WCI - WIND CHILL INDEX
   HX - HEAT INDEX
  VSB - VISIBILITY




USA.gov is the U.S. government's official web portal to all federal, state and local government web resources and services.